Location: Newark
(46.7000°N, 60.6000°W)
Time: 09:28:38
(UTC+00:00)

Transit 2A Rocket - Pass Details

Date: 27 October 2020
Orbit: 588 x 915 km, 66.7° (Epoch: 23 November)

Event Time Altitude Azimuth Distance (km) Brightness Sun altitude
Rises 13:04:39 0° 185° (S) 3,530 9.1 20.1°
Reaches altitude 10° 13:07:21 10° 177° (S) 2,597 8.7 20.5°
Maximum altitude 13:12:50 36° 112° (ESE) 1,391 7.7 21.1°
Drops below altitude 10° 13:18:12 10° 48° (NE) 2,542 7.7 21.7°
Sets 13:20:49 0° 40° (NE) 3,448 8.3 21.9°
